| time (UTC) | temp F | wind direction | speed MPH | gust MPH | rain 1hr in | rain 24hr in | rain mn in | humidity % | barometer mb |
| 20260506171803 | 62 | 247 | 1.0 | 6.0 | 0.00 | 0.00 | 0.00 | 43 | 1013.4 |
| 20260506170903 | 62 | 235 | 1.0 | 6.0 | 0.00 | 0.00 | 0.00 | 45 | 1013.7 |
| 20260506170218 | 61 | 73 | 1.0 | 5.0 | 0.00 | 0.00 | 0.00 | 47 | 1013.7 |
| 20260506165403 | 61 | 19 | 2.0 | 7.0 | 0.00 | 0.00 | 0.00 | 46 | 1013.5 |
| 20260506164503 | 60 | 315 | 1.0 | 6.0 | 0.00 | 0.00 | 0.00 | 45 | 1013.7 |
| 20260506163818 | 60 | 275 | 1.0 | 5.0 | 0.00 | 0.00 | 0.00 | 48 | 1013.5 |
| 20260506162917 | 59 | 276 | 1.0 | 4.0 | 0.00 | 0.00 | 0.00 | 49 | 1013.9 |
| 20260506161803 | 58 | 234 | 1.0 | 4.0 | 0.00 | 0.00 | 0.00 | 50 | 1013.7 |
| 20260506160903 | 58 | 242 | 1.0 | 3.0 | 0.00 | 0.00 | 0.00 | 52 | 1013.9 |
| 20260506160003 | 57 | 251 | 1.0 | 3.0 | 0.00 | 0.00 | 0.00 | 53 | 1014.1 |
| 20260506155403 | 56 | 247 | 0.0 | 3.0 | 0.00 | 0.00 | 0.00 | 53 | 1013.8 |
| 20260506154503 | 56 | 234 | 1.0 | 3.0 | 0.00 | 0.00 | 0.00 | 54 | 1013.9 |
| 20260506153603 | 56 | 230 | 1.0 | 5.0 | 0.00 | 0.00 | 0.00 | 55 | 1014.0 |
| 20260506152703 | 55 | 234 | 0.0 | 5.0 | 0.00 | 0.00 | 0.00 | 56 | 1013.9 |
| 20260506151803 | 54 | 205 | 0.0 | 3.0 | 0.00 | 0.00 | 0.00 | 57 | 1013.9 |
| 20260506150903 | 54 | 234 | 0.0 | 2.0 | 0.00 | 0.00 | 0.00 | 58 | 1013.9 |
| 20260506150217 | 53 | 247 | 0.0 | 2.0 | 0.00 | 0.00 | 0.00 | 58 | 1014.0 |
| 20260506145403 | 53 | 231 | 0.0 | 2.0 | 0.00 | 0.00 | 0.00 | 59 | 1013.9 |
| 20260506144503 | 53 | 209 | 0.0 | 4.0 | 0.00 | 0.00 | 0.00 | 62 | 1014.1 |
| 20260506143603 | 51 | 167 | 0.0 | 2.0 | 0.00 | 0.00 | 0.00 | 68 | 1014.0 |
| 20260506142703 | 49 | 177 | 0.0 | 2.0 | 0.00 | 0.00 | 0.00 | 71 | 1013.7 |
| 20260506141803 | 48 | 216 | 0.0 | 1.0 | 0.00 | 0.00 | 0.00 | 72 | 1013.7 |
| 20260506140903 | 46 | 171 | 1.0 | 2.0 | 0.00 | 0.00 | 0.00 | 75 | 1013.9 |
| 20260506140004 | 44 | 167 | 0.0 | 2.0 | 0.00 | 0.00 | 0.00 | 76 | 1013.8 |
| 20260506135403 | 43 | 159 | 0.0 | 2.0 | 0.00 | 0.00 | 0.00 | 77 | 1013.8 |
| 20260506134717 | 42 | 143 | 0.0 | 2.0 | 0.00 | 0.00 | 0.00 | 77 | 1013.4 |
| 20260506133603 | 41 | 23 | 0.0 | 2.0 | 0.00 | 0.00 | 0.00 | 79 | 1013.7 |
| 20260506132703 | 41 | 136 | 0.0 | 1.0 | 0.00 | 0.00 | 0.00 | 79 | 1013.5 |
| 20260506131803 | 41 | 136 | 0.0 | 2.0 | 0.00 | 0.00 | 0.00 | 78 | 1013.7 |
| 20260506131117 | 40 | 121 | 0.0 | 2.0 | 0.00 | 0.00 | 0.00 | 77 | 1013.5 |
| 20260506130003 | 40 | 126 | 0.0 | 2.0 | 0.00 | 0.00 | 0.00 | 77 | 1013.4 |
| 20260506125403 | 40 | 0 | 0.0 | 0.0 | 0.00 | 0.00 | 0.00 | 77 | 1013.2 |
| 20260506124503 | 40 | 18 | 0.0 | 1.0 | 0.00 | 0.00 | 0.00 | 77 | 1013.4 |
| 20260506123603 | 40 | 35 | 0.0 | 1.0 | 0.00 | 0.00 | 0.00 | 77 | 1013.4 |
| 20260506122703 | 40 | 0 | 0.0 | 0.0 | 0.00 | 0.00 | 0.00 | 77 | 1013.4 |
| 20260506121803 | 40 | 0 | 0.0 | 0.0 | 0.00 | 0.00 | 0.00 | 76 | 1013.0 |
| 20260506120903 | 41 | 120 | 0.0 | 2.0 | 0.00 | 0.00 | 0.00 | 76 | 1013.2 |
| 20260506120003 | 41 | 113 | 0.0 | 2.0 | 0.00 | 0.00 | 0.00 | 75 | 1013.0 |
| 20260506115404 | 41 | 23 | 0.0 | 1.0 | 0.00 | 0.00 | 0.00 | 74 | 1013.4 |
| 20260506114503 | 41 | 21 | 0.0 | 1.0 | 0.00 | 0.00 | 0.00 | 74 | 1013.3 |
| 20260506113818 | 41 | 122 | 1.0 | 2.0 | 0.00 | 0.00 | 0.00 | 74 | 1013.3 |
| 20260506112704 | 41 | 19 | 0.0 | 1.0 | 0.00 | 0.00 | 0.00 | 73 | 1013.2 |
| 20260506111803 | 41 | 6 | 0.0 | 3.0 | 0.00 | 0.00 | 0.00 | 74 | 1013.2 |
| 20260506110903 | 41 | 218 | 0.0 | 1.0 | 0.00 | 0.00 | 0.00 | 72 | 1013.2 |
| 20260506110004 | 42 | 99 | 0.0 | 2.0 | 0.00 | 0.00 | 0.00 | 72 | 1012.8 |
| 20260506105403 | 42 | 79 | 0.0 | 2.0 | 0.00 | 0.00 | 0.00 | 73 | 1012.9 |
| 20260506104503 | 42 | 346 | 1.0 | 4.0 | 0.00 | 0.00 | 0.00 | 74 | 1012.9 |
| 20260506103603 | 42 | 354 | 0.0 | 4.0 | 0.00 | 0.00 | 0.00 | 74 | 1013.0 |
| 20260506102703 | 42 | 156 | 0.0 | 2.0 | 0.00 | 0.00 | 0.00 | 73 | 1013.0 |
| 20260506101803 | 43 | 140 | 0.0 | 1.0 | 0.00 | 0.00 | 0.00 | 70 | 1012.8 |
| 20260506100903 | 43 | 27 | 0.0 | 1.0 | 0.00 | 0.00 | 0.00 | 69 | 1012.9 |
| 20260506100004 | 43 | 101 | 0.0 | 2.0 | 0.00 | 0.00 | 0.00 | 69 | 1012.8 |
| 20260506095617 | 43 | 111 | 0.0 | 2.0 | 0.00 | 0.00 | 0.00 | 69 | 1013.0 |
| 20260506094503 | 43 | 2 | 0.0 | 2.0 | 0.00 | 0.00 | 0.00 | 69 | 1012.6 |
| 20260506093603 | 43 | 56 | 0.0 | 2.0 | 0.00 | 0.00 | 0.00 | 68 | 1012.9 |
| 20260506092703 | 44 | 163 | 0.0 | 2.0 | 0.00 | 0.00 | 0.00 | 66 | 1013.1 |
| 20260506091803 | 44 | 164 | 0.0 | 1.0 | 0.00 | 0.00 | 0.00 | 64 | 1012.9 |
| 20260506090903 | 44 | 162 | 0.0 | 2.0 | 0.00 | 0.00 | 0.00 | 63 | 1012.6 |
| 20260506090004 | 45 | 134 | 0.0 | 2.0 | 0.00 | 0.00 | 0.00 | 62 | 1012.6 |
| 20260506085618 | 45 | 158 | 0.0 | 2.0 | 0.00 | 0.00 | 0.00 | 62 | 1012.8 |
| 20260506084718 | 45 | 113 | 1.0 | 3.0 | 0.00 | 0.00 | 0.00 | 61 | 1012.8 |
| 20260506083604 | 45 | 23 | 0.0 | 3.0 | 0.00 | 0.00 | 0.00 | 61 | 1013.0 |
| 20260506082703 | 45 | 4 | 0.0 | 2.0 | 0.00 | 0.00 | 0.00 | 62 | 1012.9 |
| 20260506081803 | 45 | 5 | 0.0 | 2.0 | 0.00 | 0.00 | 0.00 | 61 | 1012.5 |
| 20260506080903 | 46 | 44 | 0.0 | 2.0 | 0.00 | 0.00 | 0.00 | 61 | 1012.9 |
| 20260506072703 | 47 | 123 | 0.0 | 3.0 | 0.00 | 0.00 | 0.00 | 59 | 1012.6 |
| 20260506071803 | 47 | 132 | 0.0 | 3.0 | 0.00 | 0.00 | 0.00 | 59 | 1012.6 |
| 20260506071117 | 47 | 0 | 0.0 | 0.0 | 0.00 | 0.00 | 0.00 | 58 | 1012.6 |
| 20260506061803 | 49 | 173 | 0.0 | 2.0 | 0.00 | 0.00 | 0.00 | 54 | 1012.2 |
| 20260506060903 | 50 | 162 | 0.0 | 3.0 | 0.00 | 0.00 | 0.00 | 52 | 1012.2 |
| 20260506050903 | 52 | 40 | 0.0 | 2.0 | 0.00 | 0.00 | 0.00 | 48 | 1012.3 |
| 20260506044718 | 54 | 0 | 0.0 | 0.0 | 0.00 | 0.00 | 0.00 | 45 | 1012.3 |
| 20260506043603 | 54 | 5 | 0.0 | 1.0 | 0.00 | 0.00 | 0.00 | 44 | 1012.3 |
| 20260506042703 | 54 | 0 | 0.0 | 0.0 | 0.00 | 0.00 | 0.00 | 45 | 1012.4 |
| 20260506041804 | 55 | 351 | 0.0 | 2.0 | 0.00 | 0.00 | 0.00 | 45 | 1012.4 |
| 20260506040903 | 56 | 0 | 0.0 | 0.0 | 0.00 | 0.00 | 0.00 | 45 | 1012.3 |
| 20260506040003 | 56 | 350 | 0.0 | 2.0 | 0.00 | 0.00 | 0.00 | 44 | 1012.2 |
| 20260506035616 | 56 | 350 | 0.0 | 2.0 | 0.00 | 0.00 | 0.00 | 44 | 1012.3 |
| 20260506034503 | 58 | 347 | 1.0 | 2.0 | 0.00 | 0.00 | 0.00 | 43 | 1012.2 |
| 20260506033603 | 58 | 354 | 1.0 | 2.0 | 0.00 | 0.00 | 0.00 | 41 | 1012.3 |
| 20260506032703 | 59 | 355 | 1.0 | 2.0 | 0.00 | 0.00 | 0.00 | 39 | 1012.1 |
| 20260506032018 | 60 | 360 | 0.0 | 2.0 | 0.00 | 0.00 | 0.00 | 38 | 1012.2 |
| 20260506030904 | 62 | 1 | 0.0 | 2.0 | 0.00 | 0.00 | 0.00 | 35 | 1012.2 |
| 20260506030003 | 63 | 5 | 0.0 | 2.0 | 0.00 | 0.00 | 0.00 | 34 | 1012.0 |
| 20260506025403 | 64 | 358 | 0.0 | 3.0 | 0.00 | 0.00 | 0.00 | 33 | 1012.1 |
| 20260506024503 | 65 | 211 | 0.0 | 3.0 | 0.00 | 0.00 | 0.00 | 31 | 1012.3 |
| 20260506023603 | 66 | 326 | 0.0 | 5.0 | 0.00 | 0.00 | 0.00 | 30 | 1012.2 |
| 20260506022703 | 67 | 280 | 1.0 | 5.0 | 0.00 | 0.00 | 0.00 | 29 | 1012.3 |
| 20260506021803 | 67 | 269 | 1.0 | 2.0 | 0.00 | 0.00 | 0.00 | 29 | 1012.2 |
| 20260506020903 | 67 | 170 | 0.0 | 2.0 | 0.00 | 0.00 | 0.00 | 29 | 1012.4 |
| 20260506020003 | 68 | 260 | 1.0 | 3.0 | 0.00 | 0.00 | 0.00 | 29 | 1012.4 |
| 20260506015403 | 68 | 293 | 1.0 | 4.0 | 0.00 | 0.00 | 0.00 | 28 | 1012.2 |
| 20260506014503 | 69 | 269 | 1.0 | 4.0 | 0.00 | 0.00 | 0.00 | 27 | 1012.1 |
| 20260506013603 | 69 | 307 | 1.0 | 4.0 | 0.00 | 0.00 | 0.00 | 26 | 1012.3 |
| 20260506012703 | 69 | 321 | 1.0 | 5.0 | 0.00 | 0.00 | 0.00 | 26 | 1012.2 |
| 20260506012017 | 69 | 334 | 1.0 | 7.0 | 0.00 | 0.00 | 0.00 | 27 | 1012.3 |
| 20260506011119 | 69 | 317 | 1.0 | 7.0 | 0.00 | 0.00 | 0.00 | 27 | 1012.4 |
| 20260506010218 | 69 | 23 | 1.0 | 4.0 | 0.00 | 0.00 | 0.00 | 26 | 1012.4 |
| 20260506005617 | 69 | 210 | 1.0 | 4.0 | 0.00 | 0.00 | 0.00 | 27 | 1012.5 |
| 20260506004717 | 69 | 302 | 1.0 | 7.0 | 0.00 | 0.00 | 0.00 | 26 | 1012.5 |
| 20260506003603 | 70 | 354 | 2.0 | 6.0 | 0.00 | 0.00 | 0.00 | 23 | 1012.3 |
| 20260506002703 | 70 | 321 | 1.0 | 7.0 | 0.00 | 0.00 | 0.00 | 25 | 1012.6 |
| 20260506001803 | 70 | 294 | 2.0 | 5.0 | 0.00 | 0.00 | 0.00 | 23 | 1012.4 |
| 20260506000903 | 70 | 217 | 1.0 | 4.0 | 0.00 | 0.00 | 0.00 | 26 | 1013.0 |
| 20260506000219 | 71 | 239 | 1.0 | 4.0 | 0.00 | 0.00 | 0.00 | 27 | 1012.9 |
| 20260505235617 | 71 | 263 | 2.0 | 4.0 | 0.00 | 0.00 | 0.00 | 26 | 1012.8 |
| 20260505234503 | 71 | 290 | 1.0 | 3.0 | 0.00 | 0.00 | 0.00 | 25 | 1013.2 |
| 20260505233818 | 71 | 278 | 1.0 | 4.0 | 0.00 | 0.00 | 0.00 | 26 | 1013.2 |
| 20260505232703 | 71 | 232 | 2.0 | 5.0 | 0.00 | 0.00 | 0.00 | 27 | 1013.3 |
| 20260505232018 | 71 | 178 | 3.0 | 9.0 | 0.00 | 0.00 | 0.00 | 25 | 1013.4 |
| 20260505230903 | 71 | 187 | 3.0 | 10.0 | 0.00 | 0.00 | 0.00 | 26 | 1013.4 |
| 20260505230003 | 71 | 252 | 2.0 | 8.0 | 0.00 | 0.00 | 0.00 | 26 | 1013.3 |
| 20260505225403 | 72 | 237 | 2.0 | 5.0 | 0.00 | 0.00 | 0.00 | 26 | 1013.5 |
| 20260505224718 | 72 | 244 | 2.0 | 6.0 | 0.00 | 0.00 | 0.00 | 27 | 1013.5 |
| 20260505223817 | 72 | 224 | 2.0 | 6.0 | 0.00 | 0.00 | 0.00 | 26 | 1013.8 |
| 20260505222703 | 72 | 235 | 2.0 | 8.0 | 0.00 | 0.00 | 0.00 | 26 | 1013.7 |
| 20260505222018 | 72 | 213 | 2.0 | 10.0 | 0.00 | 0.00 | 0.00 | 26 | 1013.9 |
| 20260505220903 | 72 | 244 | 2.0 | 5.0 | 0.00 | 0.00 | 0.00 | 27 | 1013.9 |
| 20260505220003 | 73 | 217 | 2.0 | 7.0 | 0.00 | 0.00 | 0.00 | 26 | 1014.2 |
| 20260505215403 | 73 | 201 | 2.0 | 6.0 | 0.00 | 0.00 | 0.00 | 26 | 1014.1 |
| 20260505214503 | 73 | 198 | 3.0 | 7.0 | 0.00 | 0.00 | 0.00 | 27 | 1014.3 |
| 20260505213603 | 72 | 209 | 2.0 | 6.0 | 0.00 | 0.00 | 0.00 | 27 | 1014.3 |
| 20260505212703 | 73 | 176 | 3.0 | 7.0 | 0.00 | 0.00 | 0.00 | 26 | 1014.2 |
| 20260505211803 | 72 | 184 | 3.0 | 8.0 | 0.00 | 0.00 | 0.00 | 28 | 1014.6 |
| 20260505210903 | 72 | 193 | 2.0 | 8.0 | 0.00 | 0.00 | 0.00 | 29 | 1014.8 |
| 20260505210003 | 71 | 233 | 2.0 | 4.0 | 0.00 | 0.00 | 0.00 | 30 | 1014.6 |
| 20260505205404 | 71 | 206 | 3.0 | 7.0 | 0.00 | 0.00 | 0.00 | 30 | 1014.8 |
| 20260505204503 | 70 | 254 | 1.0 | 4.0 | 0.00 | 0.00 | 0.00 | 31 | 1015.0 |
| 20260505203604 | 69 | 262 | 2.0 | 6.0 | 0.00 | 0.00 | 0.00 | 32 | 1014.9 |
| 20260505202703 | 69 | 261 | 2.0 | 5.0 | 0.00 | 0.00 | 0.00 | 31 | 1015.0 |
| 20260505201803 | 69 | 218 | 2.0 | 5.0 | 0.00 | 0.00 | 0.00 | 32 | 1015.1 |
| 20260505201116 | 69 | 270 | 2.0 | 5.0 | 0.00 | 0.00 | 0.00 | 30 | 1014.9 |
| 20260505200218 | 70 | 213 | 2.0 | 5.0 | 0.00 | 0.00 | 0.00 | 29 | 1014.9 |
| 20260505195403 | 70 | 176 | 2.0 | 6.0 | 0.00 | 0.00 | 0.00 | 32 | 1015.0 |
| 20260505194503 | 70 | 179 | 4.0 | 7.0 | 0.00 | 0.00 | 0.00 | 31 | 1015.2 |
| 20260505193603 | 70 | 183 | 4.0 | 7.0 | 0.00 | 0.00 | 0.00 | 33 | 1015.2 |
| 20260505192703 | 70 | 175 | 4.0 | 9.0 | 0.00 | 0.00 | 0.00 | 32 | 1015.3 |
| 20260505191803 | 69 | 171 | 4.0 | 9.0 | 0.00 | 0.00 | 0.00 | 32 | 1015.3 |
| 20260505190903 | 69 | 179 | 4.0 | 9.0 | 0.00 | 0.00 | 0.00 | 31 | 1015.3 |
| 20260505190004 | 69 | 175 | 3.0 | 7.0 | 0.00 | 0.00 | 0.00 | 33 | 1015.7 |
| 20260505185403 | 68 | 174 | 3.0 | 8.0 | 0.00 | 0.00 | 0.00 | 35 | 1015.6 |
| 20260505184503 | 67 | 168 | 3.0 | 8.0 | 0.00 | 0.00 | 0.00 | 32 | 1015.6 |
| 20260505183603 | 66 | 166 | 3.0 | 7.0 | 0.00 | 0.00 | 0.00 | 33 | 1015.6 |
| 20260505182703 | 67 | 195 | 3.0 | 7.0 | 0.00 | 0.00 | 0.00 | 35 | 1015.8 |
| 20260505181803 | 67 | 167 | 3.0 | 10.0 | 0.00 | 0.00 | 0.00 | 33 | 1015.7 |
| 20260505180903 | 67 | 174 | 4.0 | 7.0 | 0.00 | 0.00 | 0.00 | 35 | 1015.8 |
| 20260505180003 | 66 | 169 | 4.0 | 9.0 | 0.00 | 0.00 | 0.00 | 35 | 1015.9 |
| 20260505175403 | 66 | 169 | 4.0 | 7.0 | 0.00 | 0.00 | 0.00 | 35 | 1016.2 |
| 20260505174503 | 65 | 167 | 4.0 | 7.0 | 0.00 | 0.00 | 0.00 | 36 | 1015.8 |
| 20260505173603 | 64 | 161 | 3.0 | 6.0 | 0.00 | 0.00 | 0.00 | 35 | 1015.8 |
| 20260505172703 | 64 | 176 | 4.0 | 7.0 | 0.00 | 0.00 | 0.00 | 33 | 1015.9 |